Temperature
14 14 14 14 14 14 13 13 13 13 13 13 13 13 13 13 12 12 12 12 12 12 12 12 12 12 12 12 12 12 12 12 12 12 12 11 11 11
14 14 14 14 14 14 13 13 13 13 13 13 12 12 12 12 12 12 12 12 12 12 12 12 12 12 12 12 12 12 12 11 11 11 11 11 11 11
14 14 14 14 14 14 13 13 13 13 13 13 12 12 12 12 12 12 12 12 12 11 11 11 11 11 11 11 11 11 11 11 11 11 11 11 10 10
14 14 14 14 14 14 14 13 13 13 13 13 13 12 12 12 12 12 12 12 11 11 11 11 11 11 11 11 11 11 11 11 10 10 10 10 10 10
14 14 14 14 14 14 13 13 13 13 13 13 13 12 12 12 12 12 12 11 11 11 11 11 11 11 11 11 11 11 10 10 10 10 10 10 10 10
14 14 14 14 13 13 13 13 13 13 13 12 12 12 12 12 12 12 12 11 11 11 11 11 11 10 10 10 10 10 10 10 10 9 9 9 9 9
14 14 13 13 13 13 13 13 13 13 12 12 12 12 12 11 11 11 11 11 11 11 11 11 10 10 10 10 10 10 9 9 9 9 9 9 9 8
14 13 13 13 13 13 13 13 12 12 12 12 12 11 11 11 11 11 11 11 10 10 10 10 10 10 9 9 9 9 9 8 8 8 8 8 8 8
13 13 13 13 13 13 12 12 12 12 12 11 11 11 11 10 10 10 10 10 10 10 10 10 9 9 9 9 8 8 8 8 8 8 8 7 7 7
13 13 13 13 12 12 12 12 12 11 11 11 11 10 10 10 10 10 9 9 9 9 9 9 9 9 8 8 8 8 7 7 7 7 7 7 7 7
13 13 12 12 12 12 12 12 11 11 11 10 10 10 10 10 10 9 9 9 9 9 8 8 8 8 8 7 7 7 7 7 6 6 6 6 6 6
13 12 12 12 12 11 11 11 11 11 10 10 10 10 10 9 9 9 8 8 8 8 8 7 7 7 6 7 7 6 6 6 6 6 6 5 5 5
12 12 12 11 11 11 11 11 11 10 10 10 9 9 9 9 9 8 8 7 7 7 6 6 6 6 5 5 6 6 5 5 5 5 5 5 5 4
12 12 11 11 11 11 10 10 10 10 9 9 9 9 9 8 8 7 7 7 6 6 6 5 5 5 5 5 5 5 5 4 4 4 4 4 4 4
11 11 11 10 10 10 10 10 9 9 9 9 9 8 8 7 7 7 7 6 6 5 5 5 5 4 4 4 4 4 4 4 3 3 3 3 3 3
11 11 10 10 10 10 9 9 9 9 9 8 8 8 7 7 7 6 6 6 6 5 5 4 4 4 4 4 3 3 3 3 3 3 3 3 3 2
10 10 10 10 9 9 9 9 8 8 8 8 8 7 7 6 6 6 5 5 5 4 4 4 4 4 3 3 3 3 2 2 2 2 2 2 2 2
10 10 10 9 9 9 9 8 8 8 8 7 7 7 6 6 5 5 4 4 4 4 3 3 3 3 3 2 2 2 2 1 1 1 1 1 1 1
10 9 9 9 8 8 8 8 7 7 7 7 6 6 5 5 5 4 4 4 3 3 3 2 2 2 2 1 1 1 1 1 1 1 0 0 0 1
9 9 9 8 8 8 7 7 7 7 7 6 6 5 5 4 4 4 3 3 3 2 2 2 2 1 1 1 0 0 0 0 0 0 0 0 0 0
9 9 8 8 8 7 7 7 6 6 6 6 5 5 4 4 4 3 3 2 2 2 2 1 1 1 0 0 0 0 0 -0 -1 -1 -1 -1 -1 -1
9 8 8 8 7 7 7 6 6 6 5 5 5 4 4 3 3 3 2 2 2 1 1 1 1 0 0 -0 -0 -0 -0 -0 -1 -1 -1 -2 -2 -2
8 8 8 7 7 7 6 6 6 5 5 5 4 4 3 3 3 2 2 1 1 1 1 0 0 -0 -0 -1 -1 -1 -1 -1 -1 -1 -1 -1 -2 -2
Wind_Speed
1 2 1 1 1 1 2 3 3 1 2 3 3 4 5 5 6 5 5 5 5 5 5 6 6 7 8 8 8 8 9 9 9 9 8 8 8 8
1 2 2 1 1 1 2 2 2 3 1 2 2 3 4 4 6 5 5 5 6 5 5 5 5 6 6 7 7 7 8 8 8 9 8 8 8 8
2 2 1 1 1 1 2 2 2 2 2 2 2 2 3 4 6 6 6 6 6 6 5 5 5 5 6 6 6 6 7 7 8 8 8 8 8 8
1 2 1 1 2 1 2 2 1 2 2 1 2 2 2 3 4 4 5 6 6 6 6 6 5 6 6 6 5 5 6 6 7 7 8 8 8 8
1 1 1 2 1 1 1 1 1 1 2 2 1 1 2 2 3 3 4 5 5 6 7 7 7 7 7 7 6 6 6 7 7 7 8 8 8 8
1 1 1 2 2 2 2 1 2 2 2 2 1 2 2 2 2 2 3 3 3 6 6 7 7 7 8 8 7 7 7 7 8 8 8 9 9 9
1 0 1 2 2 3 2 2 3 2 2 2 1 1 2 2 2 2 2 3 2 3 4 4 5 6 7 7 8 8 7 8 8 8 9 9 10 10
1 0 1 1 2 3 4 4 4 3 3 2 1 0 2 2 1 1 1 2 3 3 2 3 4 3 5 6 8 8 8 9 9 9 10 10 10 11
1 1 1 2 2 3 4 4 3 3 4 4 2 1 1 2 1 1 1 1 2 3 2 2 3 3 5 6 8 8 9 10 10 10 11 10 10 11
1 1 1 0 2 3 4 4 3 2 2 2 2 0 0 0 0 1 1 1 2 2 3 2 3 3 4 5 8 9 10 10 11 11 12 12 11 11
1 1 2 1 2 4 4 3 2 2 4 4 4 4 5 5 4 3 2 2 2 2 2 1 2 3 3 3 7 10 10 11 11 12 12 13 12 11
1 1 1 2 2 4 3 3 2 0 2 3 4 5 6 5 5 3 1 1 1 2 2 2 2 2 3 2 4 7 8 10 11 12 13 13 13 10
2 1 1 3 3 4 4 3 3 2 2 3 3 3 4 4 5 4 2 1 0 1 2 1 1 2 2 3 3 4 6 7 9 10 12 13 12 10
3 2 2 3 3 3 3 3 3 4 3 3 2 2 3 3 3 4 4 3 2 1 3 1 1 1 2 3 3 4 5 7 7 7 10 12 11 11
3 4 4 4 3 3 3 4 4 3 3 2 1 1 1 2 3 4 4 4 5 6 6 4 2 1 1 2 3 4 4 4 6 7 8 8 8 8
3 4 5 5 4 4 4 3 2 2 2 2 1 0 1 2 2 2 2 2 2 3 6 7 5 2 1 2 2 4 4 4 6 7 7 7 9 9
4 3 3 2 2 2 2 1 1 1 1 1 1 1 1 1 2 2 1 1 2 3 4 4 6 5 3 2 3 4 4 5 6 7 7 7 7 9
6 3 2 2 1 1 1 0 0 0 0 0 0 0 0 1 1 1 2 1 2 3 3 4 4 4 3 2 2 3 4 6 6 7 6 6 8 9
4 3 2 2 2 1 1 1 1 1 1 1 1 1 1 1 1 1 2 2 2 3 3 3 4 3 4 6 4 3 4 6 6 7 6 6 8 10
2 3 3 2 2 2 2 2 2 1 1 1 1 1 1 1 1 1 2 2 3 3 4 3 3 3 4 5 5 5 7 6 6 7 7 7 7 10
3 3 3 3 2 2 2 2 2 2 1 1 1 1 1 1 1 1 2 3 3 3 4 4 5 6 4 3 4 5 5 9 9 7 7 7 8 7
4 4 3 3 3 3 2 2 2 2 2 2 2 2 2 1 1 2 2 2 2 3 4 4 4 4 3 4 6 7 7 8 10 11 10 8 6 6
4 4 3 3 3 2 2 3 3 3 2 2 2 2 2 1 1 1 2 2 2 3 4 4 4 3 4 5 6 7 9 9 7 7 7 12 13 13
Wind_Direction
92 97 95 69 110 135 143 149 146 127 322 312 321 333 341 347 357 5 1 11 14 13 17 23 26 27 25 20 19 18 17 15 13 10 7 4 2 2
94 88 71 57 76 95 125 127 137 153 193 284 283 304 339 355 4 11 5 7 10 11 12 17 20 21 20 17 15 13 11 9 6 2 358 355 353 350
71 91 62 65 73 79 100 104 108 129 164 286 299 317 348 358 1 10 12 13 6 10 13 11 14 15 13 10 8 6 6 3 359 354 349 347 346 344
99 99 62 84 74 74 96 106 118 139 156 212 322 334 336 344 352 3 11 12 11 12 18 18 18 17 14 8 4 2 2 1 357 354 351 348 343 338
158 148 157 117 105 103 107 108 105 103 122 149 316 328 320 344 354 355 5 6 13 15 22 25 27 29 26 21 19 19 18 15 9 4 358 351 346 340
129 151 159 157 180 161 138 137 120 101 98 103 38 346 331 332 1 350 344 351 359 9 12 15 24 27 22 20 18 17 17 15 12 8 2 355 349 341
81 87 149 148 163 158 148 153 136 120 110 98 54 16 350 347 331 314 323 323 341 6 359 6 14 17 12 12 12 13 15 11 5 0 356 352 347 341
136 25 49 78 97 109 113 122 135 140 148 137 141 233 289 277 291 323 339 355 329 349 356 339 9 357 353 3 6 13 15 10 5 360 355 351 346 341
147 106 71 73 88 92 87 86 88 105 139 150 150 219 251 259 260 330 318 280 273 324 353 321 346 338 342 357 9 15 13 9 5 1 356 350 347 344
148 154 140 80 101 117 103 84 71 58 88 117 143 183 38 33 195 250 240 288 304 352 15 321 326 324 337 350 16 21 18 15 11 6 2 357 351 348
118 137 152 153 133 124 115 107 69 25 51 75 78 63 49 46 56 56 33 28 331 327 9 343 319 321 324 336 3 12 15 13 8 6 3 358 353 348
84 69 136 153 141 135 135 136 129 30 56 55 45 38 37 36 47 55 67 40 324 318 342 347 328 344 325 327 348 359 6 2 1 1 359 356 353 351
136 118 112 128 127 126 134 144 160 137 99 82 54 33 27 25 20 19 28 87 120 282 320 340 325 334 298 307 325 344 355 353 353 352 352 349 349 351
156 167 144 121 113 110 113 111 115 103 93 79 59 34 18 7 359 3 9 19 16 301 316 319 280 292 298 303 307 323 333 344 347 343 342 343 342 340
141 134 125 115 99 82 75 88 96 97 99 90 66 17 356 343 0 9 17 26 20 10 6 354 329 306 279 275 295 308 317 325 337 336 336 338 336 336
116 106 102 92 85 69 55 58 76 111 121 129 127 357 11 19 21 12 8 3 9 351 352 356 346 327 307 299 294 307 319 322 333 332 330 328 328 329
124 95 84 79 76 63 55 54 72 85 100 83 103 54 31 20 2 2 10 16 8 340 340 344 355 353 326 294 307 311 318 321 321 327 330 329 323 325
125 117 129 139 156 174 169 114 66 126 256 174 163 214 275 312 339 1 13 6 337 326 328 332 341 345 345 339 265 300 320 319 321 324 323 321 320 322
132 148 164 181 198 207 204 198 223 242 214 189 208 231 249 281 332 341 346 342 331 325 328 334 343 348 336 326 320 313 313 316 320 323 320 315 310 313
163 177 195 203 206 212 216 221 229 226 198 203 219 241 236 262 319 325 323 321 319 326 333 336 335 327 309 303 303 308 309 306 315 316 316 310 300 299
196 204 208 205 209 214 218 217 213 211 209 203 216 234 234 238 286 302 303 317 322 323 322 318 309 315 309 311 312 312 310 313 311 310 315 315 317 317
204 208 211 207 207 210 212 209 207 210 211 211 219 227 224 218 249 276 286 300 306 305 307 311 320 328 326 316 310 311 316 320 325 324 320 315 317 316
211 211 209 208 210 209 206 208 212 221 219 218 222 220 210 222 243 254 273 286 301 310 316 319 325 321 312 305 305 309 314 321 326 326 322 326 324 317
Height
1562 1562 1562 1561 1561 1560 1560 1560 1560 1559 1559 1558 1558 1557 1556 1555 1554 1552 1551 1550 1548 1547 1545 1544 1543 1541 1540 1539 1537 1536 1535 1534 1532 1531 1531 1529 1528 1527
1562 1562 1561 1561 1561 1560 1560 1559 1559 1559 1558 1558 1557 1557 1556 1555 1554 1553 1551 1550 1548 1547 1545 1544 1543 1541 1540 1538 1537 1536 1534 1533 1532 1530 1529 1528 1526 1525
1562 1562 1561 1561 1560 1560 1559 1559 1559 1559 1558 1558 1557 1556 1555 1554 1553 1552 1551 1549 1548 1547 1545 1544 1542 1540 1539 1537 1536 1535 1533 1532 1530 1529 1527 1526 1525 1523
1562 1561 1561 1560 1560 1560 1559 1559 1558 1558 1558 1557 1556 1556 1555 1554 1553 1552 1550 1549 1547 1546 1545 1543 1541 1540 1538 1537 1535 1534 1532 1530 1529 1527 1526 1524 1523 1521
1561 1561 1560 1560 1559 1559 1559 1558 1558 1557 1557 1556 1555 1555 1554 1553 1552 1551 1549 1548 1546 1545 1544 1542 1540 1539 1537 1535 1534 1532 1531 1529 1527 1525 1524 1522 1520 1519
1560 1560 1560 1559 1559 1558 1558 1557 1557 1556 1556 1555 1554 1553 1553 1552 1550 1549 1548 1547 1545 1544 1542 1541 1539 1537 1536 1534 1532 1531 1529 1527 1525 1523 1521 1520 1518 1516
1559 1559 1558 1558 1558 1557 1557 1556 1556 1555 1555 1554 1553 1552 1551 1550 1549 1547 1546 1545 1544 1542 1541 1539 1538 1536 1534 1532 1530 1528 1526 1525 1523 1521 1519 1517 1515 1513
1558 1558 1557 1557 1557 1556 1556 1555 1555 1554 1554 1553 1552 1551 1550 1549 1548 1546 1545 1543 1541 1541 1539 1537 1536 1534 1532 1530 1528 1526 1524 1522 1520 1518 1516 1514 1512 1510
1557 1556 1556 1556 1555 1555 1554 1554 1553 1553 1553 1552 1551 1550 1549 1547 1546 1545 1543 1542 1540 1538 1537 1535 1534 1532 1530 1528 1526 1524 1521 1519 1517 1515 1512 1510 1508 1506
1555 1555 1555 1554 1554 1553 1553 1552 1552 1551 1551 1550 1549 1548 1547 1546 1545 1543 1542 1540 1538 1537 1535 1533 1531 1529 1527 1525 1523 1521 1519 1516 1514 1512 1509 1507 1505 1503
1553 1553 1553 1553 1552 1552 1551 1550 1550 1549 1549 1548 1548 1547 1546 1544 1543 1541 1539 1537 1536 1534 1532 1530 1528 1526 1524 1522 1520 1518 1516 1513 1511 1509 1506 1504 1501 1499
1551 1551 1551 1551 1550 1550 1550 1549 1548 1548 1547 1547 1546 1545 1543 1542 1540 1539 1537 1535 1533 1531 1530 1528 1526 1523 1521 1520 1518 1516 1513 1511 1509 1506 1503 1501 1498 1495
1549 1549 1549 1549 1549 1548 1548 1547 1547 1546 1545 1545 1544 1542 1541 1539 1538 1536 1535 1533 1531 1529 1528 1526 1523 1521 1520 1517 1515 1513 1510 1508 1505 1503 1500 1497 1494 1491
1547 1547 1547 1547 1547 1546 1545 1545 1545 1544 1543 1542 1541 1540 1538 1537 1535 1534 1532 1531 1529 1527 1525 1524 1521 1519 1517 1514 1512 1510 1508 1505 1502 1499 1496 1494 1491 1488
1545 1545 1545 1545 1545 1544 1544 1543 1542 1541 1540 1540 1538 1537 1536 1535 1533 1532 1530 1528 1527 1525 1523 1521 1519 1517 1515 1512 1509 1507 1504 1501 1499 1496 1493 1490 1486 1483
1543 1543 1543 1543 1542 1542 1541 1541 1540 1539 1538 1537 1536 1535 1534 1533 1531 1529 1527 1526 1524 1522 1521 1519 1517 1514 1512 1509 1507 1504 1502 1499 1496 1493 1489 1486 1483 1479
1540 1540 1540 1540 1539 1539 1539 1538 1538 1537 1536 1535 1534 1533 1531 1530 1528 1527 1525 1523 1521 1519 1517 1516 1514 1512 1509 1507 1504 1501 1499 1496 1493 1489 1485 1482 1479 1476
1537 1537 1537 1537 1537 1536 1536 1535 1535 1534 1533 1532 1531 1530 1529 1527 1526 1524 1522 1521 1519 1517 1515 1513 1510 1507 1506 1503 1502 1499 1496 1493 1490 1486 1483 1479 1475 1472
1534 1534 1534 1534 1534 1534 1533 1532 1532 1531 1531 1529 1528 1527 1526 1524 1523 1521 1519 1518 1516 1514 1512 1510 1508 1505 1502 1500 1498 1497 1493 1490 1486 1483 1480 1476 1472 1468
1531 1531 1531 1531 1531 1531 1530 1530 1529 1528 1527 1526 1525 1524 1523 1521 1520 1518 1516 1515 1513 1511 1509 1508 1505 1503 1501 1499 1496 1493 1491 1487 1483 1479 1476 1472 1469 1465
1527 1528 1528 1528 1528 1527 1527 1526 1525 1524 1523 1522 1521 1521 1519 1518 1517 1515 1514 1512 1511 1509 1506 1505 1503 1501 1499 1496 1493 1490 1488 1485 1482 1478 1473 1469 1464 1460
1524 1524 1524 1524 1524 1524 1523 1522 1521 1521 1520 1519 1518 1517 1516 1515 1513 1512 1511 1509 1507 1506 1504 1502 1500 1498 1495 1493 1489 1486 1484 1482 1479 1476 1472 1468 1464 1458
1520 1520 1520 1520 1520 1520 1519 1518 1518 1517 1516 1515 1514 1513 1512 1511 1510 1509 1507 1506 1504 1502 1501 1499 1497 1494 1492 1490 1487 1484 1481 1477 1474 1471 1468 1465 1462 1458